FW2111 Weather Reports


time (UTC)temp
F
wind
direction
speed
knots
gust
knots
rain 1hr
in
rain 24hr
in
rain mn
in
humidity
%
barometer
mb
20260503005442 52 138 0.9 2.6 0.00 0.00 0.00 38 1009.0
20260503004918 52 138 0.9 3.5 0.00 0.00 0.00 38 1009.0
20260503004914 52 137 0.9 3.5 0.00 0.00 0.00 39 1009.0
20260503003857 53 125 0.9 2.6 0.00 0.00 0.00 37 1009.0
20260503003359 53 125 0.9 3.5 0.00 0.00 0.00 36 1009.1
20260503002831 54 124 1.7 3.5 0.00 0.00 0.00 34 1009.2
20260503002332 55 92 1.7 3.5 0.00 0.00 0.00 32 1009.2
20260503002309 55 86 1.7 4.3 0.00 0.00 0.00 32 1009.1
20260503001245 55 74 1.7 4.3 0.00 0.00 0.00 33 1009.2
20260503001017 55 95 0.9 2.6 0.00 0.00 0.00 32 1009.3
20260503000222 56 95 0.9 2.6 0.00 0.00 0.00 32 1009.3
20260502235726 56 95 1.7 6.1 0.00 0.00 0.00 31 1009.4
20260502235159 58 96 2.6 6.1 0.00 0.00 0.00 28 1009.4
20260502234656 60 103 3.5 7.8 0.00 0.00 0.00 27 1009.3
20260502234132 62 165 3.5 8.7 0.00 0.00 0.00 25 1009.4
20260502233622 62 181 4.3 8.7 0.00 0.00 0.00 25 1009.4
20260502233126 62 200 4.3 7.0 0.00 0.00 0.00 25 1009.5
20260502232600 62 198 4.3 9.6 0.00 0.00 0.00 25 1009.5
20260502232100 62 200 5.2 10.4 0.00 0.00 0.00 25 1009.6
20260502231559 62 230 5.2 10.4 0.00 0.00 0.00 24 1009.7
20260502231101 63 216 6.1 11.3 0.00 0.00 0.00 23 1009.7
20260502230829 63 200 6.1 11.3 0.00 0.00 0.00 23 1009.6
20260502230313 64 205 7.0 13.0 0.00 0.00 0.00 23 1009.8
20260502225521 64 195 6.1 14.8 0.00 0.00 0.00 23 1009.6
20260502225252 63 227 5.2 14.8 0.00 0.00 0.00 22 1009.8
20260502224522 63 0 5.2 12.2 0.00 0.00 0.00 22 1009.8
20260502224003 64 252 5.2 14.8 0.00 0.00 0.00 21 1010.0
20260502223503 64 220 7.0 14.8 0.00 0.00 0.00 22 1009.9
20260502223001 64 230 8.7 15.6 0.00 0.00 0.00 21 1010.1
20260502222452 64 246 7.8 15.6 0.00 0.00 0.00 22 1010.1
20260502222224 63 227 6.1 15.6 0.00 0.00 0.00 21 1010.3
20260502221450 62 199 5.2 15.6 0.00 0.00 0.00 24 1010.2
20260502220947 60 194 4.3 10.4 0.00 0.00 0.00 24 1010.2
20260502220447 60 165 2.6 10.4 0.00 0.00 0.00 25 1010.3
20260502215922 59 174 1.7 3.5 0.00 0.00 0.00 26 1010.4
20260502215358 58 78 1.7 2.6 0.00 0.00 0.00 26 1010.4
20260502214859 58 71 2.6 6.1 0.00 0.00 0.00 25 1010.5
20260502214335 58 125 2.6 6.1 0.00 0.00 0.00 25 1010.6
20260502213835 58 128 2.6 6.1 0.00 0.00 0.00 24 1010.7
20260502213308 59 175 2.6 6.1 0.00 0.00 0.00 24 1010.8
20260502213040 59 109 1.7 5.2 0.00 0.00 0.00 24 1010.9
20260502212240 59 149 1.7 5.2 0.00 0.00 0.00 23 1011.0
20260502211711 59 72 2.6 7.0 0.00 0.00 0.00 23 1011.0
20260502211148 59 111 3.5 7.0 0.00 0.00 0.00 23 1011.1
20260502210622 58 117 3.5 7.8 0.00 0.00 0.00 23 1011.1
20260502210054 58 79 3.5 7.8 0.00 0.00 0.00 22 1011.2
20260502205821 58 107 3.5 7.8 0.00 0.00 0.00 22 1011.4
20260502205049 58 136 3.5 7.0 0.00 0.00 0.00 22 1011.5
20260502204545 58 121 2.6 7.0 0.00 0.00 0.00 21 1011.7
20260502204042 58 111 2.6 7.0 0.00 0.00 0.00 22 1011.5
20260502203537 57 113 4.3 7.0 0.00 0.00 0.00 22 1011.9
20260502203032 57 119 5.2 7.8 0.00 0.00 0.00 23 1011.8
20260502202800 57 106 6.1 8.7 0.00 0.00 0.00 23 1011.9
20260502202026 57 116 5.2 8.7 0.00 0.00 0.00 20 1012.1
20260502201753 58 130 4.3 7.8 0.00 0.00 0.00 21 1012.1
20260502201019 57 144 4.3 7.0 0.00 0.00 0.00 21 1012.1
20260502200517 57 117 4.3 7.0 0.00 0.00 0.00 24 1012.4
20260502195951 56 74 4.3 7.8 0.00 0.00 0.00 23 1012.5
20260502195423 55 132 4.3 7.8 0.00 0.00 0.00 23 1012.7
20260502194921 56 92 5.2 9.6 0.00 0.00 0.00 23 1012.8
20260502194355 57 126 5.2 9.6 0.00 0.00 0.00 23 1012.9
20260502193830 58 161 3.5 8.7 0.00 0.00 0.00 21 1013.0
20260502193331 57 155 3.5 7.0 0.00 0.00 0.00 23 1013.2
20260502193102 57 102 2.6 6.1 0.00 0.00 0.00 24 1013.1
20260502192807 57 107 2.6 5.2 0.00 0.00 0.00 23 1013.3
20260502191752 55 111 3.5 7.0 0.00 0.00 0.00 28 1013.4
20260502191526 55 172 4.3 7.0 0.00 0.00 0.00 24 1013.5
20260502190729 55 105 4.3 7.8 0.00 0.00 0.00 25 1013.5
20260502190226 56 123 3.5 7.8 0.00 0.00 0.00 23 1013.7
20260502185723 56 186 2.6 7.8 0.00 0.00 0.00 25 1013.8
20260502185156 55 150 3.5 7.8 0.00 0.00 0.00 26 1013.9
20260502184653 54 138 4.3 8.7 0.00 0.00 0.00 24 1014.0
20260502184127 55 152 3.5 8.7 0.00 0.00 0.00 25 1014.2
20260502183559 55 191 1.7 6.1 0.00 0.00 0.00 27 1014.2
20260502183329 54 192 2.6 6.1 0.00 0.00 0.00 26 1014.3
20260502182545 53 164 3.5 7.0 0.00 0.00 0.00 27 1014.5
20260502182042 53 86 3.5 7.0 0.00 0.00 0.00 26 1014.6
20260502181516 53 173 3.5 7.0 0.00 0.00 0.00 26 1014.7
20260502181013 54 117 2.6 5.2 0.00 0.00 0.00 26 1014.9
20260502180447 54 122 3.5 7.8 0.00 0.00 0.00 27 1014.8
20260502180151 54 138 4.3 7.8 0.00 0.00 0.00 27 1014.8
20260502170129 52 160 3.5 7.8 0.00 0.00 0.00 29 1015.9
20260502164030 51 128 2.6 6.1 0.00 0.00 0.00 34 1016.2
20260502163505 51 140 2.6 6.1 0.00 0.00 0.00 33 1016.3
20260502162938 51 95 2.6 6.1 0.00 0.00 0.00 33 1016.4
20260502162435 50 92 2.6 7.0 0.00 0.00 0.00 35 1016.5
20260502161907 50 148 3.5 7.0 0.00 0.00 0.00 36 1016.5
20260502161639 50 122 3.5 7.0 0.00 0.00 0.00 36 1016.5
20260502161108 50 190 2.6 7.0 0.00 0.00 0.00 35 1016.7
20260502160335 50 144 3.5 7.8 0.00 0.00 0.00 37 1016.7
20260502152202 47 181 2.6 5.2 0.00 0.00 0.00 39 1017.3
20260502151645 46 153 2.6 5.2 0.00 0.00 0.00 37 1017.5
20260502151147 46 165 2.6 7.0 0.00 0.00 0.00 36 1017.5
20260502150901 46 149 2.6 7.0 0.00 0.00 0.00 39 1017.5
20260502150104 45 130 2.6 4.3 0.00 0.00 0.00 40 1017.5
20260502130132 40 181 1.7 2.6 0.00 0.00 0.00 48 1018.3
20260502123422 40 219 0.9 1.7 0.00 0.00 0.00 46 1018.3
20260502122856 40 235 0.0 1.7 0.00 0.00 0.00 45 1018.2
20260502122330 40 260 0.0 1.7 0.00 0.00 0.00 46 1018.3
20260502121804 39 264 0.0 0.0 0.00 0.00 0.00 45 1018.3
20260502121242 39 265 0.0 0.0 0.00 0.00 0.00 47 1018.3
20260502121238 39 264 0.0 0.0 0.00 0.00 0.00 47 1018.3
20260502120223 38 266 0.0 0.0 0.00 0.00 0.00 45 1018.4
20260502115723 38 266 0.0 1.7 0.00 0.00 0.00 45 1018.4
20260502115657 38 266 0.0 1.7 0.00 0.00 0.00 46 1018.4
20260502114656 37 267 0.9 3.5 0.00 0.00 0.00 48 1018.4
20260502114129 37 267 1.7 5.2 0.00 0.00 0.00 48 1018.4
20260502113625 37 271 2.6 5.2 0.00 0.00 0.00 47 1018.4
20260502113101 35 268 1.7 5.2 0.00 0.00 0.00 48 1018.3
20260502112532 33 283 1.7 3.5 0.00 0.00 0.00 52 1018.4
20260502112030 33 283 1.7 3.5 0.00 0.00 0.00 52 1018.3
20260502111504 33 283 1.7 3.5 0.00 0.00 0.00 53 1018.4
20260502110938 33 282 1.7 3.5 0.00 0.00 0.00 52 1018.4
20260502110435 34 282 2.6 3.5 0.00 0.00 0.00 50 1018.4
20260502110204 34 282 2.6 3.5 0.00 0.00 0.00 49 1018.4
20260502105403 34 279 2.6 3.5 0.00 0.00 0.00 49 1018.3
20260502104838 35 278 3.5 3.5 0.00 0.00 0.00 48 1018.3
20260502104310 34 277 3.5 5.2 0.00 0.00 0.00 49 1018.3
20260502103807 34 279 3.5 5.2 0.00 0.00 0.00 50 1018.3
20260502103242 32 286 2.6 4.3 0.00 0.00 0.00 53 1018.3
20260502102947 31 284 1.7 4.3 0.00 0.00 0.00 56 1018.3
20260502102212 31 287 1.7 2.6 0.00 0.00 0.00 57 1018.5
20260502101645 30 282 2.6 3.5 0.00 0.00 0.00 57 1018.5
20260502101142 31 284 2.6 3.5 0.00 0.00 0.00 57 1018.4
20260502100638 31 293 1.7 3.5 0.00 0.00 0.00 56 1018.5
20260502100135 31 300 1.7 2.6 0.00 0.00 0.00 56 1018.5
20260502091447 31 292 1.7 2.6 0.00 0.00 0.00 56 1018.5
20260502090921 32 292 1.7 3.5 0.00 0.00 0.00 55 1018.4
20260502090418 32 291 2.6 4.3 0.00 0.00 0.00 55 1018.4
20260502071325 31 306 1.7 2.6 0.00 0.00 0.00 54 1019.0
20260502070800 31 306 2.6 3.5 0.00 0.00 0.00 54 1019.1
20260502070233 32 307 2.6 3.5 0.00 0.00 0.00 53 1019.0
20260502065708 32 304 2.6 3.5 0.00 0.00 0.00 52 1019.1
20260502065141 32 301 2.6 3.5 0.00 0.00 0.00 53 1019.1
20260502064638 32 296 2.6 3.5 0.00 0.00 0.00 52 1019.2
20260502064112 32 288 3.5 3.5 0.00 0.00 0.00 52 1019.2
20260502063842 32 286 2.6 4.3 0.00 0.00 0.00 52 1019.1
20260502063341 32 298 3.5 4.3 0.00 0.00 0.00 52 1019.2
20260502062610 33 296 3.5 4.3 0.00 0.00 0.00 51 1019.1
20260502062315 33 296 3.5 4.3 0.00 0.00 0.00 51 1019.2
20260502061540 33 294 3.5 4.3 0.00 0.00 0.00 50 1019.2
20260502061037 33 290 3.5 4.3 0.00 0.00 0.00 49 1019.2
20260502060502 34 290 3.5 4.3 0.00 0.00 0.00 48 1019.2
20260502055942 34 290 3.5 4.3 0.00 0.00 0.00 49 1019.2
20260502055419 33 296 3.5 4.3 0.00 0.00 0.00 50 1019.3
20260502054919 33 298 2.6 3.5 0.00 0.00 0.00 52 1019.2
20260502054356 32 296 2.6 3.5 0.00 0.00 0.00 52 1019.2
20260502053830 32 294 2.6 3.5 0.00 0.00 0.00 53 1019.3
20260502053332 32 302 2.6 3.5 0.00 0.00 0.00 53 1019.3
20260502052805 32 303 2.6 3.5 0.00 0.00 0.00 53 1019.3
20260502052247 32 304 2.6 3.5 0.00 0.00 0.00 53 1019.3
20260502051748 32 304 2.6 3.5 0.00 0.00 0.00 54 1019.4
20260502051232 32 303 2.6 3.5 0.00 0.00 0.00 54 1019.3
20260502050733 32 300 2.6 3.5 0.00 0.00 0.00 54 1019.3
20260502050208 32 301 2.6 3.5 0.00 0.00 0.00 54 1019.4
20260502045710 32 304 1.7 2.6 0.00 0.00 0.00 52 1019.4
20260502045415 33 304 1.7 2.6 0.00 0.00 0.00 53 1019.4
20260502044617 33 304 1.7 2.6 0.00 0.00 0.00 53 1019.4
20260502044104 33 304 0.9 1.7 0.00 0.00 0.00 52 1019.5
20260502043607 33 305 0.9 2.6 0.00 0.00 0.00 52 1019.4
20260502043050 33 304 1.7 2.6 0.00 0.00 0.00 53 1019.3
20260502042549 33 305 2.6 3.5 0.00 0.00 0.00 53 1019.4
20260502042024 33 305 2.6 3.5 0.00 0.00 0.00 53 1019.4
20260502041524 33 305 1.7 2.6 0.00 0.00 0.00 52 1019.4
20260502040958 33 303 1.7 2.6 0.00 0.00 0.00 51 1019.4
20260502040433 34 303 1.7 2.6 0.00 0.00 0.00 51 1019.4
20260502035934 34 300 1.7 2.6 0.00 0.00 0.00 51 1019.4
20260502035417 34 300 1.7 2.6 0.00 0.00 0.00 51 1019.5
20260502035147 35 302 1.7 2.6 0.00 0.00 0.00 50 1019.4
20260502034647 35 302 1.7 2.6 0.00 0.00 0.00 49 1019.4
20260502033915 35 303 1.7 2.6 0.00 0.00 0.00 48 1019.4
20260502033353 35 302 2.6 3.5 0.00 0.00 0.00 49 1019.4
20260502032844 35 302 2.6 3.5 0.00 0.00 0.00 49 1019.4
20260502032343 35 303 2.6 2.6 0.00 0.00 0.00 50 1019.5
20260502031845 35 304 2.6 2.6 0.00 0.00 0.00 48 1019.5
20260502031324 35 304 1.7 2.6 0.00 0.00 0.00 48 1019.4
20260502030824 36 304 2.6 3.5 0.00 0.00 0.00 48 1019.5
20260502030326 36 303 2.6 3.5 0.00 0.00 0.00 48 1019.4
20260502025810 36 301 2.6 2.6 0.00 0.00 0.00 48 1019.4
20260502025249 36 300 2.6 3.5 0.00 0.00 0.00 47 1019.4
20260502024737 36 298 2.6 3.5 0.00 0.00 0.00 47 1019.4
20260502024238 36 297 2.6 3.5 0.00 0.00 0.00 47 1019.4
20260502023735 37 294 2.6 3.5 0.00 0.00 0.00 47 1019.5
20260502023208 37 300 2.6 2.6 0.00 0.00 0.00 46 1019.4
20260502022647 37 311 2.6 2.6 0.00 0.00 0.00 45 1019.4
20260502022123 38 314 1.7 2.6 0.00 0.00 0.00 46 1019.3
20260502021603 38 329 1.7 2.6 0.00 0.00 0.00 43 1019.3
20260502021309 38 30 1.7 2.6 0.00 0.00 0.00 43 1019.2
20260502020808 39 33 1.7 2.6 0.00 0.00 0.00 43 1019.2
20260502020039 39 33 1.7 2.6 0.00 0.00 0.00 42 1019.2
20260502015744 39 33 1.7 2.6 0.00 0.00 0.00 42 1019.2
20260502015009 40 43 1.7 2.6 0.00 0.00 0.00 42 1019.1
20260502014459 41 44 0.9 2.6 0.00 0.00 0.00 41 1019.1
20260502013936 41 44 0.0 1.7 0.00 0.00 0.00 39 1019.1
20260502013410 42 44 0.9 2.6 0.00 0.00 0.00 35 1019.1
20260502012905 42 44 0.9 2.6 0.00 0.00 0.00 34 1019.0
20260502012338 42 45 0.9 2.6 0.00 0.00 0.00 35 1019.0
20260502011814 42 45 0.9 2.6 0.00 0.00 0.00 34 1019.1
20260502011538 42 76 0.9 2.6 0.00 0.00 0.00 35 1019.1
20260502010806 42 76 0.0 1.7 0.00 0.00 0.00 35 1019.0
20260502010239 43 77 0.9 1.7 0.00 0.00 0.00 35 1019.0
20260502005943 43 77 0.0 1.7 0.00 0.00 0.00 35 1019.0